Погода в Ланкаране

Погода в Ланкаране : погода сейчас, прогноз погоды и архив. Всё, что Вы хотите узнать о погоде в Ланкаране!

Поиск расширенной информации на нашем сайте:

Другие новости

Новости СМИ2

Главная страница сайта

Новости сайта

02.10.2013

Напоминаем, что на нашем новом сайте вы можете получить высокодетализированные прогнозы погоды по пунктам России, СНГ и мира (включающие важные для авиации метеовеличины, такие как направление и скорость ветра, видимость, явления погоды, количество и форма облачности, нижняя и верхняя граница облачности), а также ознакомиться с разнообразными материалами по авиационной метеорологии и подборкой полезных ссылок на эту тему.

Сайт Метеоцентр.Азия посвящён разработке технологий оптимизации авиаметеорологического обслуживания, включая проектирование и перспективное создание нескольких автоматизированных авиаметеорологических систем:
- система выпуска высокодетальных прогностических карт явлений погоды для нижнего воздушного пространства по России и ближнему зарубежью;
- система верификации прогнозов TAF (выпускаемых синоптиками официальных АМСГ РФ и ближнего зарубежья) и AUTOTAF (выпускаемых сайтом Метеоцентр.Азия) - выявление ошибок, онлайн-сопоставление с фактической погодой METAR, автоматическое внесение коррективов в прогнозы при резком отклонении фактической погоды от прогноза, подсчёт оправдываемости прогнозов по элементам и в целом;
- система обработки, анализа и отображения авиаметеорологической информации для применения провайдерами метеорологической информации.


Погода в Ланкаране - сегодня

Время (UTC), дата Ветер
(°,м/с) 
Видим.   Явления Облачность Т
(°С)
Тd
(°С)
f(%) Тe
(°С)
Pmin
(гПа)
dP
(гПа)
Po
(мм)
O2
(г/м3)
Тmin Tmax R s Состояние
почвы
15 21.01.17 180 (Ю) 4000 м  дымка  10/10 600 м 
[Sc]
+5.3 +3.4 88 +6  1023.9  0.4  769  303           
18 21.01.17 160 (Ю) 4000 м    10/10 600 м 
[Sc]
+4.3 +3.1 92 +5  1023.9  769  305           
21 21.01.17 160 (Ю) 4000 м    10/10 600 м 
[Sc]
+4 +2.5 90 +5  1023.7  -0.2  769  305           
00 22.01.17 230 (ЮЗ) 4000 м    10/10 600 м 
[Sc]
+4.4 +1.9 84 +5  1023  -0.7  768  304           
03 22.01.17 250 (З) 4000 м    4/0 средняя 
[Ac lent]
+0.9 +0.4 96 +2  1023.1  0.1  768  309           
06 22.01.17 200 (Ю) 20000 м    3/3 600 м средняя 
[Sc|Ac lent]
+2.3 +0.1 85 +3  1023.8  0.7  769  307         
09 22.01.17 360 (С) 4000 м    10/10 600 м 
[Sc]
+7.6 -0.9 55 +9  1023.5  -0.3  769  301           
12 22.01.17 340 (С) 10 км    10/10 600 м 
[Sc]
+8.6 -1.7 48 +10  1023.6  0.1  769  301           
15 22.01.17 200 (Ю) 4000 м    10/10 600 м 
[Sc]
+6.5 -1.2 58 +7  1026.6  771  304           
18 22.01.17 050 (СВ) 4000 м    10/10 600 м 
[Sc]
+5.6 +2.4 80 +6  1030.3  3.7  774  305           
21 22.01.17 270 (З) 4000 м    10/10 600 м 
[Sc]
+3.9 +1.8 86 +5  1032.2  1.9  775  308           
00 23.01.17 270 (З) 4000 м  слаб. дождь  10/10 300 м 
[Frnb|Ns]
+3.3 +2.3 93 +4  1032.5  0.3  776  308           
03 23.01.17 110 (В) 4000 м  {дождь}  10/6 600 м средняя 
[Sc|Ac lent]
+1.5 +1 96 +2  1031.8  -2.2  775  310      0.7     
06 23.01.17 200 (Ю) 20000 м    3/0 средняя 
[Ac lent]
+3.8 +2.6 92 +5  1032.2  0.4  775  308         
09 23.01.17 090 (В) 20000 м    ясно 
+9.6 +3.6 66 +11  1031.8  -0.4  775  301           
12 23.01.17 090 (В) 20000 м    ясно 
+9.7 +1.8 58 +11  1030.3  -1.5  774  301           
15 23.01.17 160 (Ю) 4000 м    ясно 
+4.9 -0.4 69 +6  1031.3  775  307           
18 23.01.17 230 (ЮЗ) 4000 м    ясно 
+1.8 -0.1 87 +3  1032.1  0.8  775  310           
21 23.01.17 270 (З) 4000 м    ясно 
-0.8 -1.4 96 1032.8  0.7  776  314           
00 24.01.17 250 (З) 4000 м    ясно 
+0.3 -1.1 90 +1  1033.4  0.6  776  313           
03 24.01.17 160 (Ю) 4000 м    ясно 
+0.6 -2 83 +1  1032.8  -0.6  776  312           
06 24.01.17 290 (З) 20000 м    4/0 средняя 
[Ac lent]
+2.3 +0.1 85 +3  1033.7  0.9  776  310         
09 24.01.17 050 (СВ) 20000 м    ясно 
+7.7 +1.3 64 +9  1032  -1.7  775  304           
12 24.01.17 160 (Ю) 20000 м    ясно 
+8.7 +3.6 70 +10  1029.5  -2.5  773  301           
15 24.01.17 140 (ЮВ) 4000 м    ясно 
+6.1 +3.7 85 +7  1028.1  -1.4  772  304           
Время (UTC), дата Ветер
(°,м/с) 
Видим.   Явления Облачность Т
(°С)
Тd
(°С)
f(%) Тe
(°С)
Pmin
(гПа)
dP
(гПа)
Po
(мм)
O2
(г/м3)
Тmin Tmax R s Состояние
почвы

Для получения пояснительной информации подведите курсор к названию столбца.

ПОГОДА в Ланкаране - архив

Всё, что Вы хотите узнать о погоде в Ланкаране - удобно и подробно!

Выберите нужную дату (начиная с 1 января 2015* года) и нажмите кнопку "Найти".
Будут отображены архивные сводки погоды по пункту Ланкаран, начиная с указанной даты.


Отображать данные в формате CSV (для использования в таблицах Excel)


Внимание! Наш архив погоды предназначен исключительно для личного некоммерческого использования в познавательных целях. Если Вам необходимы официальные справки о состоянии погоды (для производственных, юридических, коммерческих и т.п. целей), обращайтесь в органы Росгидромета.

*Примечание: данная дата относится к архиву по метеостанциям СССР (Россия, СНГ, Балтия).
Архив по метеостанциям Зарубежной Европы и Азии (кроме Китая) хранится 10 дней, по другим регионам земного шара (Китай, Африка, Америка, Австралия, Океания) - 1 день.

Ланкаран - район местоположения метеостанции


Название, широта, долгота, высота метеостанции:
Ланкаран (аэропорт) 38.7°ш. 48.8°д. -12 м над ур. моря [Азербайджан]

Дополнительная информация

В oтличие oт бoльшинства пoгoдных сайтoв мы публикуем пoдрoбную метеoинфoрмацию в детальнoм прoфессиoнальнoм фoрмате.

Характеристики температуры и влажнoсти вoздуха измеряются на высoте 2 м в тени вдали oт зданий и деревьев.
Скoрoсть ветра измеряется на высoте 10 м (на урoвне рoста челoвека скoрoсть ветра ниже в 1.5-2 раза). Если метеoстанция нахoдится в гoрoде или в лесу, тo скoрoсть ветра занижена на 2-4 м/с пo сравнению с oткрытым местoм. Скoрoсть ветра над акватoриями крупных рек и oзёр, а также на вершинах хoлмoв на 2-5 м/с выше, чем в oбычных услoвиях.
Атмoсфернoе давление в разных тoчках местнoсти мoжет значительнo oтличаться oт давления на метеoстанции, в зависимoсти oт услoвий рельефа (при пoдъёме на 10 м давление пoнижается примернo на 1 мм рт.ст.).